Location: F M Corners
(41.2198°N, 80.4709°W)
Time: 07:43:18
(UTC+00:00)

NOSS 3-3 (A) - Pass Details

Date: 29 October 2020
Orbit: 826 x 1387 km, 63.4° (Epoch: 22 November)

Event Time Altitude Azimuth Distance (km) Brightness Sun altitude
Rises 23:23:34 0° 207° (SSW) 3,378 7.4 -12.4°
Reaches altitude 10° 23:25:56 10° 205° (SSW) 2,478 6.6 -12.9°
Maximum altitude 23:31:36 75° 122° (ESE) 947 3.8 -13.9°
Drops below altitude 10° 23:38:00 10° 38° (NE) 2,779 6.0 -15.1°
Enters shadow 23:38:34 - 37° (NE) 2,993 6.2 -15.2°
